Total_Precipitation_Accumulation
0.00 0.00 0.00 0.00 0.00 0.00 0.00 0.00 0.00 0.00 0.00 0.00 0.00 0.00 0.00 0.00 0.00 0.00 0.00 0.00 0.00 0.00 0.00 0.00 0.00 0.00 0.00 0.00 0.00 0.00 0.00 0.00 0.00 0.00 0.00 0.00 0.00 0.00 0.00 0.00 0.00 0.00 0.00 0.00 0.00 0.00 0.00
0.00 0.00 0.00 0.00 0.00 0.00 0.00 0.00 0.00 0.00 0.00 0.00 0.00 0.00 0.00 0.00 0.00 0.00 0.00 0.00 0.00 0.00 0.00 0.00 0.00 0.00 0.00 0.00 0.00 0.00 0.00 0.00 0.00 0.00 0.00 0.00 0.00 0.00 0.00 0.00 0.00 0.00 0.00 0.00 0.00 0.00 0.00
0.00 0.00 0.00 0.00 0.00 0.00 0.00 0.00 0.00 0.00 0.00 0.00 0.00 0.00 0.00 0.00 0.00 0.00 0.00 0.00 0.00 0.00 0.00 0.00 0.00 0.00 0.00 0.00 0.00 0.00 0.00 0.00 0.00 0.00 0.00 0.00 0.00 0.00 0.00 0.00 0.00 0.00 0.00 0.00 0.00 0.00 0.00
0.00 0.00 0.00 0.00 0.00 0.00 0.00 0.00 0.00 0.00 0.00 0.00 0.00 0.00 0.00 0.00 0.00 0.00 0.00 0.00 0.00 0.00 0.00 0.00 0.00 0.00 0.00 0.00 0.00 0.00 0.00 0.00 0.00 0.00 0.00 0.00 0.00 0.00 0.00 0.00 0.00 0.00 0.00 0.00 0.00 0.00 0.00
0.00 0.00 0.00 0.00 0.00 0.00 0.00 0.00 0.00 0.00 0.00 0.00 0.00 0.00 0.00 0.00 0.00 0.00 0.00 0.00 0.00 0.00 0.00 0.00 0.00 0.00 0.00 0.00 0.00 0.00 0.00 0.00 0.00 0.00 0.00 0.00 0.00 0.00 0.00 0.00 0.00 0.00 0.00 0.00 0.00 0.00 0.00
0.00 0.00 0.00 0.00 0.00 0.00 0.00 0.00 0.00 0.00 0.00 0.00 0.00 0.00 0.00 0.00 0.00 0.00 0.00 0.00 0.00 0.00 0.00 0.00 0.00 0.00 0.00 0.00 0.00 0.00 0.00 0.00 0.00 0.00 0.00 0.00 0.00 0.00 0.00 0.00 0.00 0.00 0.00 0.00 0.00 0.00 0.00
0.00 0.00 0.00 0.00 0.00 0.00 0.00 0.00 0.00 0.00 0.00 0.00 0.00 0.00 0.00 0.00 0.00 0.00 0.00 0.00 0.00 0.00 0.00 0.00 0.00 0.00 0.00 0.00 0.00 0.00 0.00 0.00 0.00 0.00 0.00 0.00 0.00 0.00 0.00 0.00 0.00 0.00 0.00 0.00 0.00 0.00 0.00
0.01 0.01 0.00 0.00 0.00 0.00 0.00 0.00 0.00 0.00 0.00 0.00 0.00 0.00 0.00 0.00 0.00 0.00 0.00 0.00 0.00 0.00 0.00 0.00 0.00 0.00 0.00 0.00 0.00 0.00 0.00 0.00 0.00 0.00 0.00 0.00 0.00 0.00 0.00 0.00 0.00 0.00 0.00 0.00 0.00 0.00 0.00
0.02 0.02 0.02 0.01 0.01 0.00 0.00 0.00 0.00 0.00 0.00 0.00 0.00 0.00 0.00 0.00 0.00 0.00 0.00 0.00 0.00 0.00 0.00 0.00 0.00 0.00 0.00 0.00 0.00 0.00 0.00 0.00 0.00 0.00 0.00 0.00 0.00 0.00 0.00 0.00 0.00 0.00 0.00 0.00 0.00 0.00 0.00
0.03 0.03 0.02 0.01 0.01 0.01 0.00 0.00 0.00 0.00 0.00 0.00 0.00 0.00 0.00 0.00 0.00 0.00 0.00 0.00 0.00 0.00 0.00 0.00 0.00 0.00 0.00 0.00 0.00 0.00 0.00 0.00 0.00 0.00 0.00 0.00 0.00 0.00 0.00 0.00 0.00 0.00 0.00 0.00 0.00 0.00 0.00
0.02 0.02 0.02 0.01 0.01 0.01 0.01 0.02 0.01 0.00 0.00 0.00 0.00 0.00 0.00 0.00 0.00 0.00 0.00 0.00 0.00 0.00 0.00 0.00 0.00 0.00 0.00 0.00 0.00 0.00 0.00 0.00 0.00 0.00 0.00 0.00 0.00 0.00 0.00 0.00 0.00 0.00 0.00 0.00 0.00 0.00 0.00
0.02 0.03 0.04 0.03 0.02 0.02 0.01 0.01 0.01 0.01 0.00 0.00 0.00 0.00 0.01 0.00 0.00 0.00 0.00 0.00 0.00 0.00 0.00 0.00 0.00 0.00 0.00 0.00 0.00 0.00 0.00 0.00 0.00 0.00 0.00 0.00 0.00 0.00 0.00 0.00 0.00 0.00 0.00 0.00 0.00 0.00 0.00
0.03 0.03 0.03 0.03 0.03 0.02 0.02 0.02 0.03 0.04 0.02 0.02 0.02 0.03 0.03 0.01 0.00 0.00 0.00 0.00 0.01 0.01 0.00 0.00 0.00 0.00 0.00 0.00 0.00 0.00 0.00 0.00 0.00 0.00 0.00 0.00 0.00 0.00 0.00 0.00 0.00 0.00 0.00 0.00 0.00 0.00 0.00
0.05 0.05 0.05 0.04 0.03 0.02 0.02 0.02 0.04 0.06 0.04 0.04 0.02 0.05 0.09 0.01 0.00 0.00 0.00 0.00 0.01 0.00 0.00 0.00 0.00 0.00 0.00 0.00 0.00 0.00 0.00 0.00 0.00 0.00 0.00 0.00 0.00 0.00 0.00 0.00 0.00 0.00 0.00 0.00 0.00 0.00 0.00
0.07 0.07 0.06 0.06 0.05 0.04 0.02 0.02 0.02 0.05 0.06 0.08 0.07 0.04 0.09 0.02 0.00 0.01 0.03 0.03 0.00 0.00 0.00 0.00 0.00 0.00 0.00 0.00 0.00 0.00 0.00 0.00 0.00 0.00 0.00 0.00 0.00 0.00 0.00 0.00 0.00 0.00 0.00 0.00 0.00 0.00 0.00
0.13 0.12 0.12 0.10 0.08 0.07 0.05 0.02 0.01 0.02 0.05 0.10 0.05 0.08 0.12 0.06 0.04 0.12 0.18 0.10 0.01 0.00 0.00 0.00 0.00 0.00 0.00 0.00 0.00 0.00 0.00 0.00 0.00 0.00 0.00 0.00 0.00 0.00 0.00 0.00 0.00 0.00 0.00 0.00 0.00 0.00 0.00
0.17 0.17 0.19 0.18 0.14 0.12 0.07 0.04 0.01 0.01 0.04 0.16 0.10 0.09 0.04 0.12 0.43 0.78 0.38 0.06 0.01 0.00 0.00 0.00 0.00 0.00 0.00 0.00 0.00 0.00 0.00 0.00 0.00 0.00 0.00 0.00 0.00 0.00 0.00 0.00 0.00 0.00 0.00 0.00 0.00 0.00 0.00
0.12 0.10 0.11 0.15 0.21 0.21 0.15 0.09 0.06 0.04 0.04 0.13 0.21 0.22 0.10 0.28 0.68 0.65 0.21 0.03 0.03 0.00 0.00 0.00 0.00 0.00 0.00 0.00 0.00 0.00 0.00 0.00 0.00 0.00 0.00 0.00 0.00 0.00 0.00 0.00 0.00 0.00 0.00 0.00 0.00 0.00 0.00
0.12 0.10 0.09 0.13 0.16 0.22 0.20 0.15 0.12 0.14 0.14 0.22 0.47 0.48 0.20 0.43 0.66 0.50 0.20 0.08 0.07 0.07 0.04 0.04 0.04 0.01 0.00 0.00 0.00 0.00 0.00 0.00 0.00 0.00 0.00 0.00 0.00 0.01 0.00 0.00 0.00 0.00 0.00 0.00 0.00 0.00 0.01
0.14 0.12 0.11 0.16 0.17 0.19 0.20 0.22 0.21 0.20 0.27 0.35 0.63 0.68 0.51 0.60 0.58 0.46 0.39 0.31 0.28 0.24 0.20 0.26 0.23 0.11 0.09 0.07 0.04 0.04 0.03 0.00 0.00 0.00 0.00 0.02 0.05 0.01 0.00 0.00 0.00 0.00 0.00 0.00 0.00 0.04 0.01
0.07 0.07 0.08 0.12 0.18 0.21 0.18 0.16 0.18 0.16 0.30 0.34 0.54 0.56 0.45 0.49 0.50 0.59 0.61 0.60 0.45 0.41 0.44 0.45 0.49 0.38 0.32 0.31 0.27 0.29 0.23 0.15 0.09 0.05 0.04 0.12 0.17 0.04 0.01 0.00 0.00 0.00 0.00 0.01 0.04 0.02 0.06
0.09 0.08 0.06 0.06 0.10 0.14 0.17 0.16 0.13 0.12 0.27 0.53 0.33 0.30 0.34 0.36 0.31 0.44 0.67 0.62 0.45 0.39 0.46 0.44 0.57 0.55 0.62 0.65 0.50 0.40 0.37 0.41 0.33 0.20 0.17 0.25 0.31 0.14 0.07 0.00 0.01 0.02 0.00 0.01 0.03 0.01 0.02
0.08 0.10 0.09 0.08 0.07 0.08 0.10 0.09 0.08 0.11 0.29 0.47 0.28 0.18 0.42 0.47 0.29 0.33 0.34 0.25 0.23 0.28 0.39 0.32 0.23 0.32 0.30 0.23 0.29 0.35 0.32 0.25 0.26 0.23 0.23 0.31 0.31 0.28 0.13 0.01 0.04 0.05 0.00 0.00 0.00 0.00 0.00
0.08 0.09 0.10 0.09 0.10 0.11 0.13 0.14 0.08 0.07 0.16 0.35 0.36 0.36 0.46 0.38 0.18 0.15 0.07 0.11 0.19 0.21 0.29 0.13 0.10 0.18 0.14 0.09 0.13 0.17 0.16 0.14 0.11 0.08 0.09 0.17 0.16 0.27 0.23 0.16 0.23 0.02 0.00 0.00 0.00 0.00 0.00
0.09 0.10 0.12 0.13 0.11 0.09 0.10 0.12 0.13 0.11 0.17 0.24 0.22 0.57 0.80 0.54 0.12 0.06 0.07 0.11 0.13 0.13 0.27 0.29 0.11 0.09 0.14 0.29 0.35 0.27 0.13 0.11 0.07 0.02 0.01 0.05 0.16 0.36 0.37 0.24 0.11 0.01 0.00 0.00 0.00 0.00 0.00
0.10 0.10 0.10 0.10 0.13 0.15 0.17 0.18 0.16 0.14 0.16 0.31 0.24 0.26 0.74 0.77 0.22 0.02 0.05 0.06 0.11 0.12 0.12 0.12 0.04 0.06 0.18 0.44 0.53 0.39 0.16 0.04 0.01 0.01 0.00 0.01 0.13 0.39 0.46 0.33 0.13 0.01 0.00 0.00 0.00 0.01 0.00
0.10 0.11 0.13 0.14 0.16 0.16 0.16 0.18 0.24 0.24 0.21 0.30 0.30 0.24 0.71 0.77 0.24 0.04 0.10 0.07 0.04 0.06 0.15 0.07 0.04 0.09 0.26 0.62 0.71 0.44 0.23 0.05 0.05 0.00 0.00 0.01 0.06 0.25 0.28 0.36 0.23 0.01 0.00 0.01 0.07 0.02 0.00
0.14 0.13 0.14 0.15 0.15 0.18 0.19 0.18 0.17 0.18 0.28 0.50 0.49 0.19 0.50 0.70 0.20 0.01 0.04 0.08 0.09 0.10 0.14 0.11 0.16 0.20 0.28 0.49 0.49 0.32 0.34 0.16 0.11 0.01 0.00 0.00 0.02 0.05 0.10 0.25 0.16 0.00 0.00 0.00 0.00 0.00 0.00
0.13 0.14 0.17 0.16 0.19 0.18 0.12 0.10 0.15 0.19 0.18 0.31 0.29 0.22 0.35 0.56 0.29 0.02 0.00 0.01 0.02 0.06 0.14 0.26 0.29 0.15 0.21 0.34 0.31 0.32 0.37 0.32 0.17 0.13 0.00 0.02 0.02 0.02 0.01 0.01 0.00 0.00 0.00 0.00 0.00 0.00 0.00